Location: Ago
(8.4667°N, 4.4833°E)
Time: 00:00:31
(UTC+00:00)

Ariane H10-3 - Pass Details

Date: 18 September 2020
Orbit: 309 x 28686 km, 6.9° (Epoch: 20 October)

Event Time Altitude Azimuth Distance (km) Brightness Sun altitude
Rises 12:48:57 0° 261° (W) 18,632 9.8 70.6°
Reaches altitude 10° 13:15:45 10° 261° (W) 22,263 10.5 64.2°
Drops below altitude 10° 16:49:05 10° 268° (W) 32,196 14.7 11.8°
Maximum altitude 19:52:43 76° 189° (S) 1,744 4.1 -33.5°
Enters shadow 19:53:33 71° 143° (SE) 1,615 3.8 -33.7°
